Tiempo cada hora Çay

Hoy, 20 Abril, Martes

Tiempo Temperatura Precipitaciones Viento Presión Humedad
00:00 +11°C° 0 mm 3 mps 666 mmHg 80%
01:00 +12°C° 0 mm 2 mps 666 mmHg 83%
02:00 +10°C° 0 mm 2 mps 666 mmHg 86%
03:00 +10°C° 0 mm 2 mps 666 mmHg 85%
04:00 +9°C° 0 mm 2 mps 666 mmHg 84%
05:00 +9°C° 0 mm 2 mps 666 mmHg 83%
06:00 +10°C° 0 mm 3 mps 666 mmHg 73%
07:00 +11°C° 0 mm 3 mps 667 mmHg 63%
08:00 +13°C° 0 mm 4 mps 667 mmHg 54%
09:00 +14°C° 0 mm 5 mps 668 mmHg 44%
10:00 +15°C° 0 mm 6 mps 668 mmHg 34%
11:00 +17°C° 0 mm 7 mps 668 mmHg 24%
12:00 +17°C° 0 mm 7 mps 668 mmHg 23%
13:00 +17°C° 0 mm 8 mps 668 mmHg 22%
14:00 +18°C° 0 mm 8 mps 668 mmHg 21%
15:00 +17°C° 0 mm 8 mps 668 mmHg 24%
16:00 +16°C° 0 mm 8 mps 668 mmHg 26%
17:00 +15°C° 0 mm 8 mps 668 mmHg 29%
18:00 +12°C° 0 mm 7 mps 668 mmHg 35%
19:00 +12°C° 0 mm 5 mps 668 mmHg 40%
20:00 +11°C° 0 mm 3 mps 668 mmHg 46%
21:00 +10°C° 0 mm 3 mps 669 mmHg 51%
22:00 +9°C° 0 mm 2 mps 669 mmHg 55%
23:00 +9°C° 0 mm 2 mps 669 mmHg 59%

Mañana, 21 Abril, Miércoles

Tiempo Temperatura Precipitaciones Viento Presión Humedad
00:00 +9°C° 0 mm 1 mps 669 mmHg 62%
01:00 +8°C° 0 mm 1 mps 669 mmHg 65%
02:00 +8°C° 0 mm 1 mps 669 mmHg 68%
03:00 +7°C° 0 mm 1 mps 669 mmHg 70%
04:00 +7°C° 0 mm 1 mps 669 mmHg 72%
05:00 +7°C° 0 mm 1 mps 670 mmHg 74%
06:00 +7°C° 0 mm 0 mps 670 mmHg 68%
07:00 +8°C° 0 mm 0 mps 670 mmHg 62%
08:00 +9°C° 0 mm 0 mps 671 mmHg 56%
09:00 +12°C° 0 mm 1 mps 671 mmHg 50%
10:00 +13°C° 0 mm 1 mps 671 mmHg 43%
11:00 +14°C° 0 mm 1 mps 671 mmHg 37%
12:00 +15°C° 0 mm 1 mps 671 mmHg 33%
13:00 +16°C° 0 mm 2 mps 671 mmHg 30%
14:00 +17°C° 0 mm 2 mps 671 mmHg 26%
15:00 +17°C° 0 mm 3 mps 671 mmHg 26%
16:00 +17°C° 0 mm 3 mps 671 mmHg 25%
17:00 +15°C° 0 mm 4 mps 670 mmHg 25%
18:00 +14°C° 0 mm 4 mps 671 mmHg 29%
19:00 +12°C° 0 mm 3 mps 671 mmHg 34%
20:00 +11°C° 0 mm 3 mps 671 mmHg 38%
21:00 +10°C° 0 mm 2 mps 671 mmHg 40%
22:00 +10°C° 0 mm 2 mps 671 mmHg 42%
23:00 +9°C° 0 mm 2 mps 671 mmHg 44%

Pasado mañana, 22 Abril, Jueves

Tiempo Temperatura Precipitaciones Viento Presión Humedad
00:00 +9°C° 0 mm 2 mps 671 mmHg 47%
01:00 +8°C° 0 mm 2 mps 671 mmHg 50%
02:00 +8°C° 0 mm 2 mps 671 mmHg 53%
03:00 +7°C° 0 mm 2 mps 671 mmHg 57%
04:00 +8°C° 0 mm 1 mps 671 mmHg 60%
05:00 +8°C° 0 mm 1 mps 672 mmHg 64%
06:00 +9°C° 0 mm 1 mps 672 mmHg 60%
07:00 +9°C° 0 mm 2 mps 672 mmHg 56%
08:00 +10°C° 0 mm 2 mps 673 mmHg 52%
09:00 +12°C° 0 mm 2 mps 673 mmHg 46%
10:00 +14°C° 0 mm 2 mps 674 mmHg 40%
11:00 +15°C° 0 mm 2 mps 674 mmHg 33%
12:00 +15°C° 0 mm 2 mps 674 mmHg 30%
13:00 +16°C° 0 mm 2 mps 674 mmHg 28%
14:00 +17°C° 0 mm 2 mps 674 mmHg 25%
15:00 +17°C° 0 mm 3 mps 674 mmHg 25%
16:00 +17°C° 0 mm 3 mps 674 mmHg 25%
17:00 +17°C° 0 mm 3 mps 673 mmHg 25%
18:00 +16°C° 0 mm 2 mps 673 mmHg 30%
19:00 +14°C° 0 mm 2 mps 673 mmHg 34%
20:00 +13°C° 0 mm 1 mps 673 mmHg 38%
21:00 +12°C° 0 mm 1 mps 673 mmHg 40%
22:00 +12°C° 0 mm 1 mps 673 mmHg 42%
23:00 +11°C° 0 mm 1 mps 673 mmHg 44%

23 Abril, Viernes

Tiempo Temperatura Precipitaciones Viento Presión Humedad
00:00 +11°C° 0 mm 1 mps 673 mmHg 45%
01:00 +10°C° 0 mm 1 mps 672 mmHg 46%
02:00 +10°C° 0 mm 1 mps 672 mmHg 47%
03:00 +10°C° 0 mm 1 mps 672 mmHg 47%
04:00 +10°C° 0 mm 1 mps 672 mmHg 48%
05:00 +9°C° 0 mm 1 mps 672 mmHg 49%
06:00 +11°C° 0 mm 1 mps 672 mmHg 44%
07:00 +13°C° 0 mm 1 mps 673 mmHg 40%
08:00 +14°C° 0 mm 1 mps 673 mmHg 36%
09:00 +16°C° 0 mm 1 mps 673 mmHg 33%
10:00 +17°C° 0 mm 2 mps 673 mmHg 30%
11:00 +18°C° 0 mm 2 mps 674 mmHg 27%
12:00 +19°C° 0 mm 3 mps 673 mmHg 26%
13:00 +20°C° 0 mm 4 mps 673 mmHg 25%
14:00 +21°C° 0 mm 5 mps 673 mmHg 24%
15:00 +21°C° 0 mm 6 mps 673 mmHg 27%
16:00 +20°C° 0 mm 7 mps 673 mmHg 30%
17:00 +20°C° 0 mm 8 mps 673 mmHg 33%
18:00 +17°C° 0 mm 6 mps 673 mmHg 37%
19:00 +15°C° 0 mm 5 mps 673 mmHg 42%
20:00 +14°C° 0 mm 4 mps 673 mmHg 46%
21:00 +13°C° 0 mm 3 mps 673 mmHg 49%
22:00 +14°C° 0 mm 2 mps 673 mmHg 51%
23:00 +13°C° 0 mm 1 mps 673 mmHg 53%

24 Abril, Sábado

Tiempo Temperatura Precipitaciones Viento Presión Humedad
00:00 +12°C° 0 mm 1 mps 673 mmHg 54%
01:00 +12°C° 0 mm 1 mps 672 mmHg 55%
02:00 +12°C° 0 mm 1 mps 672 mmHg 56%
03:00 +11°C° 0 mm 0 mps 672 mmHg 56%
04:00 +10°C° 0 mm 0 mps 672 mmHg 57%
05:00 +10°C° 0 mm 0 mps 672 mmHg 57%
06:00 +12°C° 0 mm 0 mps 672 mmHg 53%
07:00 +13°C° 0 mm 0 mps 673 mmHg 49%
08:00 +15°C° 0 mm 0 mps 673 mmHg 45%
09:00 +18°C° 0 mm 1 mps 673 mmHg 43%
10:00 +19°C° 0 mm 1 mps 673 mmHg 42%
11:00 +20°C° 0 mm 1 mps 673 mmHg 41%
12:00 +20°C° 0 mm 1 mps 673 mmHg 40%
13:00 +20°C° 0 mm 2 mps 673 mmHg 39%
14:00 +20°C° 0 mm 2 mps 672 mmHg 38%
15:00 +19°C° 0.1 mm 2 mps 672 mmHg 45%
16:00 +18°C° 0.1 mm 3 mps 672 mmHg 52%
17:00 +17°C° 0.1 mm 3 mps 672 mmHg 58%
18:00 +16°C° 0.2 mm 2 mps 672 mmHg 64%
19:00 +15°C° 0.2 mm 2 mps 672 mmHg 70%
20:00 +15°C° 0.2 mm 1 mps 672 mmHg 76%
21:00 +14°C° 0.1 mm 1 mps 672 mmHg 76%
22:00 +14°C° 0.1 mm 1 mps 671 mmHg 77%
23:00 +14°C° 0.1 mm 1 mps 671 mmHg 78%

25 Abril, Domingo

Tiempo Temperatura Precipitaciones Viento Presión Humedad
00:00 +14°C° 0.1 mm 1 mps 670 mmHg 80%
01:00 +14°C° 0.1 mm 1 mps 670 mmHg 83%
02:00 +13°C° 0.1 mm 1 mps 670 mmHg 85%
03:00 +13°C° 0 mm 1 mps 670 mmHg 86%
04:00 +13°C° 0 mm 1 mps 669 mmHg 86%
05:00 +13°C° 0 mm 2 mps 669 mmHg 86%
06:00 +13°C° 0 mm 2 mps 669 mmHg 83%
07:00 +14°C° 0 mm 2 mps 669 mmHg 80%
08:00 +14°C° 0 mm 2 mps 669 mmHg 77%
09:00 +15°C° 0.4 mm 2 mps 669 mmHg 75%
10:00 +16°C° 0.4 mm 2 mps 669 mmHg 73%
11:00 +16°C° 0.4 mm 2 mps 669 mmHg 71%
12:00 +15°C° 1.5 mm 2 mps 668 mmHg 74%
13:00 +15°C° 1.5 mm 2 mps 668 mmHg 78%
14:00 +14°C° 1.5 mm 2 mps 667 mmHg 81%
15:00 +14°C° 1.3 mm 2 mps 667 mmHg 79%
16:00 +15°C° 1.3 mm 2 mps 667 mmHg 77%
17:00 +15°C° 1.3 mm 2 mps 667 mmHg 75%
18:00 +14°C° 0.8 mm 2 mps 667 mmHg 80%
19:00 +13°C° 0.8 mm 2 mps 667 mmHg 84%
20:00 +12°C° 0.8 mm 2 mps 667 mmHg 89%
21:00 +12°C° 0.5 mm 2 mps 668 mmHg 90%
22:00 +12°C° 0.5 mm 1 mps 668 mmHg 90%
23:00 +12°C° 0.5 mm 1 mps 668 mmHg 91%
Mostrar más

Necesitamos Su Consentimiento

Meteoprog y nuestros Proveedores de Servicios pueden almacenar y acceder a sus datos personales como cookies, identificadores de dispositivo u otras tecnologías similares de su dispositivo y procesar dichos datos para personalizar contenido y anuncios, además de ofrecer funciones de redes sociales y analizar el tráfico.

  • Almacenar y/o acceder a información en su dispositivo

    Se puede almacenar o acceder a cookies, identificadores de dispositivo u otra información de su dispositivo para los fines anteriormente indicados.

  • Anuncios y contenido personalizados, medición de anuncios y contenido, percepciones del público, y desarrollo de productos

    Los anuncios y el contenido pueden personalizarse en base a su perfil. Se pueden añadir más datos para personalizar mejor los anuncios y contenidos. Se puede medir el rendimiento de los anuncios y contenidos. Se puede obtener la percepción sobre el público que ha visto los anuncios y contenidos. Dichos datos pueden usarse para desarrollar o mejorar la experiencia del usuario, sistemas y software.

Al hacer clic en ‘Estoy De Acuerdo’ usted permitirá el uso de las cookies, identificadores de dispositivo, balizas web u otras tecnologías similares indicadas. Su configuración puede cambiarse desde el navegador de su dispositivo.

Para ciertos fines, los intereses legítimos pueden ser considerados por encima del consentimiento. Puede leer más sobre ello en nuestra Política de Privacidad y Cookies.